sat.trackr.live / text

‹ back to catalog

WILDFIRE 10

NORAD 57766 · 2023-133K

PAYLOAD ACTIVE UNKNOWN

§ Identity

Operator
Country
US
Launch date
2023-09-02
Launch site
AFWTR
Launch vehicle
Mass (kg)
RCS (m²)

External: N2YO · Heavens-Above · Gunter

§ Orbital elements

Epoch: 2026-05-25T02:00:02.952000Z

Period
103.93 min
Inclination
81.0043°
Eccentricity
0.0007482
Mean motion
13.85602559 rev/d
Perigee alt
938.6 km
Apogee alt
949.6 km
Semi-major
7,322.2 km
B*
8.5589e-5
RAAN
29.6657°
Arg perigee
67.5182°
Mean anomaly
292.6766°
Rev number
13,784

§ Raw data

WILDFIRE 101 57766U 23133K   26145.08336750  .00000109  00000+0  85589-4 0  99912 57766  81.0043  29.6657 0007482  67.5182 292.6766 13.85602559137849

JSON: /api/v1/satellites/57766 · /tle

For live sub-satellite position, see the globe view (requires WebGL).

§ Visibility from observer

Set your observer location to see the next 7 days of passes ≥ 10°. The values pass through the URL so the page stays shareable.

No JS? Fill the form by hand. The geolocation button needs JavaScript.

§ Radio — SatNOGS DB

ModeDescriptionDownlinkUplink
FM S-band telemetry 2.278 GHz

1 transmitter · refreshed weekly from db.satnogs.org